www.pogodaiklimat.ru

Погода и климат >> Архив погоды >> Украина >> Кропивницкий


АРХИВ ПОГОДЫ в Кропивницком

Время (UTC), дата Ветер
(напр.,м/с)
 
Видим.   Явления Облачность Т
(С)
Тd
(С)
f
(%)
Тe
(С)
Тes
(С)
Комфортность P
(гПа)
Po
(гПа)
Тmin
(С)
Tmax
(С)
R
(мм)
R24
(мм)
S
(см)
09 16.02 СЗ 7 20 км 10/10 150 м
[St]
+2.2 +0.3 87 -4 -4 по сезону 1024.8 1003.3
12 16.02 СЗ 6 20 км 10/10 150 м
[St]
+2.4 +0.2 85 -4 -4 по сезону 1024.4 1003.0
15 16.02 СЗ 6 5000 м дымка 10/10 120 м
[St]
+2.0 +0.7 91 -4 -4 по сезону 1023.9 1002.4
18 16.02 СЗ 6 1100 м дымка 10/10 90 м
[St]
+0.9 +0.6 98 -6 -6 по сезону 1023.9 1002.4 +2.6
21 16.02 З 3 200 м туман ?/? +0.9 +0.9 100 -4 -4 по сезону 1023.2 1001.7
00 17.02 СЗ 5 200 м туман ?/? +0.4 +0.4 100 -6 -6 по сезону 1022.5 1000.9
03 17.02 СЗ 3 3900 м в посл. час туман ясно -0.2 -0.5 98 -5 -5 по сезону 1021.1 999.5
06 17.02 СЗ 4 10 км {туман} ясно -0.4 -1.3 94 -6 -6 по сезону 1020.4 998.8 -0.4 1
09 17.02 З 6 20 км ясно +5.0 +0.6 73 0 +2 тепло 1019.0 997.9
12 17.02 З 6 20 км ясно +9.0 -1.3 48 +6 +7 тепло 1016.5 995.7
15 17.02 З 6 20 км 4/0
[Ci fib]
+7.6 -0.7 56 +4 +4 тепло 1015.7 994.8
18 17.02 СЗ 5 10 км 9/9 960 м
[Sc]
+5.3 +0.4 71 +1 +1 тепло 1016.5 995.4 +9.6
21 17.02 СЗ 5 10 км 9/9 840 м
[Sc]
+5.0 +0.6 73 +1 +1 тепло 1017.4 996.3
00 18.02 СЗ 6 10 км 5/5 1000 м
[Sc]
+3.3 -0.2 78 -2 -2 тепло 1018.4 997.2
03 18.02 СЗ 5 10 км ясно +1.0 -1.0 86 -5 -5 по сезону 1019.3 997.9
06 18.02 СЗ 4 10 км 3/0
[Ci fib]
-0.6 -2.1 90 -6 -6 по сезону 1021.7 1000.1 -0.6 0
09 18.02 СЗ 6 20 км 8/0
[Ci fib]
+3.1 -2.7 66 -2 -0 по сезону 1022.2 1000.9
12 18.02 С 7 20 км 6/0
[Ci fib]
+4.8 -5.9 46 -0 +1 по сезону 1022.4 1001.2
15 18.02 С 4 20 км 3/0
[Ci fib]
+3.0 -5.8 52 -1 -1 по сезону 1023.3 1001.9
18 18.02 С 2 10 км ясно -0.5 -6.4 64 -4 -4 по сезону 1025.1 1003.4 +5.0
21 18.02 С 2 10 км ясно -3.0 -6.1 79 -7 -7 по сезону 1026.2 1004.3
00 19.02 штиль 0 10 км ясно -4.6 -7.0 83 -6 -6 по сезону 1027.1 1005.0
03 19.02 штиль 0 6000 м дымка ясно -5.8 -6.9 92 -7 -7 по сезону 1027.3 1005.1
06 19.02 Ю 2 10 км ясно -6.6 -7.4 94 -11 -10 по сезону 1027.9 1005.6 -7.6 0
09 19.02 Ю 5 20 км ясно +2.1 -4.7 61 -3 0 по сезону 1027.3 1005.8
12 19.02 Ю 5 20 км ясно +4.9 -8.6 37 +1 +3 по сезону 1025.8 1004.5
15 19.02 Ю 5 20 км ясно +3.9 -8.4 40 -0 -0 по сезону 1024.0 1002.7
18 19.02 Ю 6 10 км ясно +0.1 -7.0 59 -6 -6 по сезону 1023.1 1001.5 +5.5
21 19.02 Ю 4 10 км ясно -1.8 -7.9 63 -7 -7 по сезону 1022.1 1000.4
00 20.02 Ю 5 10 км 8/0
[Ci fib]
-2.4 -6.4 74 -9 -9 по сезону 1020.2 998.5
03 20.02 Ю 5 10 км 10/10 400 м
[St]
-1.8 -4.2 84 -8 -8 по сезону 1018.0 996.4
06 20.02 Ю 6 10 км 10/10 180 м
[St]
-0.8 -2.1 91 -8 -8 по сезону 1016.6 995.1 -2.6 0
09 20.02 ЮЗ 5 5000 м дымка 10/10 150 м
[St]
+2.2 +0.9 91 -3 -3 по сезону 1015.3 994.0
12 20.02 З 4 7000 м в посл. час морось 10/10 180 м
[St]
+2.6 +1.3 91 -2 -2 по сезону 1014.6 993.4
15 20.02 З 3 5000 м дымка 9/9 600 м
[Sc]
+2.8 +1.2 89 -1 -1 по сезону 1014.7 993.5
18 20.02 З 3 8000 м дымка 9/9 1440 м
[Sc]
+2.9 +1.3 89 -1 -1 тепло 1015.1 993.9 +2.9 0.0
21 20.02 З 4 10 км ясно +2.4 +0.3 86 -3 -3 по сезону 1014.9 993.7
00 21.02 З 4 10 км 9/0
[Ac trans]
+2.0 -0.8 82 -3 -3 по сезону 1014.5 993.2
03 21.02 З 6 10 км 9/0
[Ac trans]
+2.8 -0.2 81 -3 -3 по сезону 1014.0 992.8
06 21.02 З 5 20 км 6/6 900 м
[Sc]
+2.7 -0.9 77 -3 -2 по сезону 1014.1 992.9 +1.9 0
09 21.02 СЗ 11 20 км 8/5 1200 м
[Sc Ac trans]
+3.8 -4.6 54 -3 -3 по сезону 1015.1 993.9
12 21.02 СЗ 10 20 км 8/4 1140 м
[Sc Ci fib]
+3.2 -7.6 45 -3 -3 по сезону 1015.0 993.8
15 21.02 СЗ 5 20 км 9/0
[Ac trans Ci fib]
+2.8 -7.8 46 -2 -2 по сезону 1015.6 994.4
18 21.02 СЗ 2 10 км ясно -0.4 -7.7 58 -4 -4 по сезону 1016.5 995.0 +4.2
21 21.02 С 3 10 км 3/0
[Ci fib]
-1.6 -7.2 66 -6 -6 по сезону 1017.8 996.2
00 22.02 З 1 10 км 6/0
[Ci fib]
-3.0 -7.6 71 -5 -5 по сезону 1018.0 996.3
03 22.02 С 1 10 км 10/0
[Ci fib]
-4.5 -8.4 74 -7 -7 по сезону 1018.1 996.2
06 22.02 С 3 20 км 10/10 1200 м
[Sc]
-4.0 -8.1 73 -9 -9 по сезону 1017.9 996.1 -5.0 0
09 22.02 С 5 20 км 10/6 930 м
[Sc Ac As]
-3.8 -10.0 62 -10 -10 прохладно 1018.6 996.8
12 22.02 С 8 20 км {ливн. осадки} 9/9 960 м
[Cb calv]
-4.2 -10.6 61 -12 -12 очень
холодно
1019.7 997.8
15 22.02 С 8 20 км в посл. час ливневой снег 10/10 840 м
[Cb calv]
-6.3 -12.2 63 -15 -15 очень
холодно
1022.6 1000.5
18 22.02 С 7 10 км {ливн. осадки} 10/10 1230 м
[Cb calv]
-7.0 -11.7 69 -16 -16 очень
холодно
1025.5 1003.3 -3.4 0.0
21 22.02 С 5 10 км ясно -8.9 -12.8 73 -17 -17 очень
холодно
1027.6 1005.2
00 23.02 С 5 10 км ясно -9.6 -13.2 75 -17 -17 очень
холодно
1028.9 1006.4
03 23.02 С 5 10 км 9/9 500 м
[Sc]
-8.0 -10.7 81 -16 -16 очень
холодно
1031.1 1008.7
06 23.02 С 4 20 км 3/0
[Ac trans]
-9.6 -11.7 85 -17 -16 очень
холодно
1033.5 1010.9 -10.4 0

 

Местоположение метеостанции Кропивницкий (Кировоградская область, Украина): широта 48.52 долгота 32.20 высота над уровнем моря 171 м.

В архиве по умолчанию представлена погода в Кропивницком за последнюю неделю. Архивные данные за месяц целиком и за предыдущие месяцы, начиная с января 2011 года, Вы можете получить, выбрав интересующий диапазон дат из раскрывающегося списка и нажав кнопку "Ввод!".


*Определитесь, кто Вы:
робот инопланетянин человек

Внимание! Время в таблицах - всемирное. Для получения местного времени необходимо прибавить поправку, которая равна 2 ч.

Смотрите также архив погоды в соседних городах и на ближайших метеорологических станциях:

Погода в Знаменке (Кировоградская область, Украина) (41 км)
Погода в Бобринце (Кировоградская область, Украина) (50 км)
Погода в Новомиргороде (Кировоградская область, Украина) (51 км)
Погода в Долинской (Кировоградская область, Украина) (61 км)
Погода в Помошной (Кировоградская область, Украина) (67 км)
Погода в Чигирине (Черкасская область, Украина) (71 км)
Погода в Ротмистровке (Черкасская область, Украина) (77 км)
Погода в Кривом Роге (Днепропетровская область, Украина) (93 км)
Погода в Светловодске (Кировоградская область, Украина) (97 км)
Погода в Черкассах (Черкасская область, Украина) (101 км)

Пояснения к столбцам:

Ветер - указаны скорость ветра в м/с - средняя за 10 мин, порывы в срок и между сроками (в фигурных скобках) и направление, откуда дует ветер: С - северный, СВ - северо-восточный, В - восточный, ЮВ - юго-восточный, Ю - южный, ЮЗ - юго-западный, З - западный, СЗ - северо-западный.
Видимость - горизонтальная дальность видимости в метрах или километрах. При видимости от 1 до 10 км при отсутствии осадков обычно наблюдается дымка, при ухудшении видимости до 1 км и менее - туман. В сухую погоду видимость может ухудшаться дымом, пылью или мглою.
Явления - указаны атмосферные явления, наблюдавшиеся в срок или в последний час перед сроком; фигурными скобками обозначены явления, наблюдавшиеся между сроками (за 1-3 часа до срока); квадратными скобками обозначены град или гололедные отложения с указанием их диаметра в мм.
Облачность - указаны через наклонную черту общая и нижняя облачность в баллах и высота нижней границы облаков в метрах; квадратными скобками обозначены формы облаков: Ci - перистые, Cs - перисто-слоистые, Cc - перисто-кучевые, Ac - высококучевые, As - высокослоистые, Sc - слоисто-кучевые, Ns - слоисто-дождевые, Cu - кучевые, Cb - кучево-дождевые. Подробнее классификацию облаков см. в Атласе облаков (PDF).
T - Температура воздуха - температура, измеренная на высоте 2 м над землей.
Td - Температура точки росы - температура, при понижении до которой содержащийся в воздухе водяной пар достигнет насыщения.
f - Относительная влажность воздуха - влажноcть воздуха, измеренная на высоте 2 м над землей.
Te - Эффективная температура - температура, которую ощущает одетый по сезону человек в тени. Характеристика душности погоды. При расчете учитывается влияние влажности воздуха и скорости ветра на теплоощущения человека.
Tes - Эффективная температура на солнце - температура, которую ощущает человек, с поправкой на солнечный нагрев. Характеристика знойности погоды. Зависит от высоты солнца над горизонтом, облачности и скорости ветра. Ночью, в пасмурную погоду, а также при ветре 12 м/с и более поправка равна нулю.
P - Атмосферное давление - приведенное к уровню моря атмосферное давление.
Po - Атмосферное давление - измеренное на уровне метеостанции атмосферное давление.
Tmin - Минимальная температура - минимум температуры воздуха на высоте 2 м над землей.
Tmax - Максимальная температура - максимум температуры воздуха на высоте 2 м над землей.
R - Количество осадков - Количество выпавших осадков за период времени, мм. При наведении курсора мыши на число - период времени, за который выпало указанное количество осадков.
R24 - Количество осадков - Количество выпавших осадков за 24 часа, мм.
S - Снежный покров - Высота снежного покрова, см. При наведении курсора мыши на число - состояние снежного покрова и степень покрытия местности в баллах.